This is the latest recevied weather packets stored in our database for station/object KJ4AJP. If no packets are shown the sender has not sent any weather packets the latest 10 day(s).
| Time | Temp. | Humidity | Pressure | Rain* | Wind** | Luminosity | Snow |
|---|---|---|---|---|---|---|---|
| 1777937272 | 25.56° C | 33% | 1008.6 hPa | 0 mm | - | 35 W/m² | - |
| 1777936969 | 25.56° C | 34% | 1008.7 hPa | 0 mm | - | 36 W/m² | - |
| 1777936666 | 25.56° C | 35% | 1008.7 hPa | 0 mm | - | 39 W/m² | - |
| 1777936362 | 25.56° C | 35% | 1008.7 hPa | 0 mm | - | 41 W/m² | - |
| 1777936058 | 26.11° C | 34% | 1008.9 hPa | 0 mm | - | 41 W/m² | - |
| 1777935757 | 26.11° C | 36% | 1008.9 hPa | 0 mm | - | 42 W/m² | - |
| 1777935455 | 26.11° C | 35% | 1009 hPa | 0 mm | - | 46 W/m² | - |
| 1777935151 | 26.11° C | 36% | 1008.8 hPa | 0 mm | - | 49 W/m² | - |
| 1777934849 | 26.11° C | 34% | 1009 hPa | 0 mm | - | 61 W/m² | - |
| 1777934546 | 26.67° C | 35% | 1009 hPa | 0 mm | - | 56 W/m² | - |
| 1777934242 | 26.67° C | 35% | 1009 hPa | 0 mm | - | 54 W/m² | - |
| 1777933937 | 26.67° C | 35% | 1009 hPa | 0 mm | - | 61 W/m² | - |
| 1777933635 | 26.67° C | 34% | 1009 hPa | 0 mm | - | 100 W/m² | - |
| 1777933332 | 27.22° C | 34% | 1008.9 hPa | 0 mm | - | 112 W/m² | - |
| 1777933029 | 27.22° C | 35% | 1008.8 hPa | 0 mm | - | 107 W/m² | - |
| 1777932726 | 27.22° C | 35% | 1008.8 hPa | 0 mm | - | 111 W/m² | - |
| 1777932422 | 27.78° C | 35% | 1008.7 hPa | 0 mm | - | 196 W/m² | - |
| 1777932120 | 27.78° C | 36% | 1008.9 hPa | 0 mm | - | 207 W/m² | - |
| 1777931816 | 27.22° C | 35% | 1008.9 hPa | 0 mm | - | 331 W/m² | - |
| 1777931514 | 27.22° C | 34% | 1008.7 hPa | 0 mm | - | 339 W/m² | - |
| 1777931209 | 27.78° C | 34% | 1008.7 hPa | 0 mm | - | 349 W/m² | - |
| 1777930906 | 27.22° C | 34% | 1008.9 hPa | 0 mm | - | 371 W/m² | - |
| 1777930603 | 27.22° C | 34% | 1008.7 hPa | 0 mm | - | 387 W/m² | - |
| 1777930299 | 27.78° C | 33% | 1009 hPa | 0 mm | - | 222 W/m² | - |
| 1777929995 | 27.78° C | 32% | 1009 hPa | 0 mm | - | 415 W/m² | - |
* Rain latest hour (hover to see other rain measurements)
** Current wind speed in m/s (hover to see current wind gust speed)